This is the latest recevied weather packets stored in our database for station/object KM4NDN. If no packets are shown the sender has not sent any weather packets the latest 10 day(s).
| Time | Temp. | Humidity | Pressure | Rain* | Wind** | Luminosity | Snow |
|---|---|---|---|---|---|---|---|
| 1777581722 | 12.78° C | 42% | 1012.6 hPa | 0 mm | - | 520 W/m² | - |
| 1777581420 | 12.22° C | 47% | 1012.5 hPa | 0 mm | - | 598 W/m² | - |
| 1777581120 | 11.67° C | 47% | 1012.6 hPa | 0 mm | - | 177 W/m² | - |
| 1777580815 | 11.67° C | 47% | 1012.5 hPa | 0 mm | - | 322 W/m² | - |
| 1777580511 | 11.67° C | 46% | 1012.6 hPa | 0 mm | - | 253 W/m² | - |
| 1777580206 | 12.22° C | 46% | 1012.6 hPa | 0 mm | - | 211 W/m² | - |
| 1777579903 | 11.11° C | 49% | 1012.7 hPa | 0 mm | - | 751 W/m² | - |
| 1777579598 | 11.67° C | 48% | 1012.6 hPa | 0 mm | - | 188 W/m² | - |
| 1777579298 | 11.67° C | 49% | 1012.5 hPa | 0 mm | - | 165 W/m² | - |
| 1777578993 | 11.67° C | 44% | 1012.7 hPa | 0 mm | - | 232 W/m² | - |
| 1777578689 | 11.67° C | 44% | 1012.5 hPa | 0 mm | - | 276 W/m² | - |
| 1777578388 | 11.67° C | 49% | 1012.7 hPa | 0 mm | - | 238 W/m² | - |
| 1777578084 | 11.67° C | 45% | 1012.5 hPa | 0 mm | - | 208 W/m² | - |
| 1777577780 | 12.22° C | 46% | 1012.5 hPa | 0 mm | - | 787 W/m² | - |
| 1777577476 | 11.67° C | 51% | 1012.6 hPa | 0 mm | - | 741 W/m² | - |
| 1777577173 | 11.67° C | 50% | 1012.7 hPa | 0 mm | - | 710 W/m² | - |
| 1777576870 | 11.67° C | 54% | 1012.8 hPa | 0 mm | - | 736 W/m² | - |
| 1777576568 | 11.11° C | 54% | 1012.8 hPa | 0 mm | - | 274 W/m² | - |
| 1777576265 | 10.56° C | 55% | 1012.9 hPa | 0 mm | - | 984 W/m² | - |
| 1777575961 | 11.11° C | 53% | 1013.1 hPa | 0 mm | - | 240 W/m² | - |
| 1777575657 | 11.11° C | 57% | 1013.1 hPa | 0 mm | - | 298 W/m² | - |
| 1777575353 | 11.67° C | 57% | 1012.9 hPa | 0 mm | - | 312 W/m² | - |
| 1777575050 | 11.67° C | 54% | 1012.9 hPa | 0 mm | - | 720 W/m² | - |
| 1777574745 | 11.67° C | 60% | 1013.2 hPa | 0 mm | - | 928 W/m² | - |
| 1777574443 | 10.56° C | 61% | 1013.1 hPa | 0 mm | - | 1031 W/m² | - |
* Rain latest hour (hover to see other rain measurements)
** Current wind speed in m/s (hover to see current wind gust speed)